CZ-6A DEB

Satellite information

Favourite Embed

Satellite Type and Status

DEBRISIN ORBIT

Key statistics

Satellite CZ-6A DEB at a glance.

Uptime

441

Days in orbit

Revolutions

≈ 14.1

Per day

Orbit

LEO

Low Earth Orbit

Inclination

89.0

Latest

Satellite identification and parameters

Extended collection of information and parameters for CZ-6A DEB.

Object identification

Identified? True

Debris? True

Object name: CZ-6A DEB

International designator: 2024-140NA

Object number (NORAD): 61084

Object ID (CCSDS): 61084

Country: PEOPLES REPUBLIC OF CHINA (PRC)

Current information (Y/N): Y

RCS size: SMALL

Orbital parameters

Period: 101.935 minutes

Inclination: 88.9912 deg

SMA: 7228.41 km

Apoapsis: 914.284 km

Periapsis: 786.265 km

RAAN: 302.1117 deg

Eccentricy: 0.00885526

Argument of periapsis: 272.3153 deg

Mean anomaly: 86.7897 deg

Mean motion: 14.12663136 rev/day

Mean motion (dot): 0.00005073 rev/day2

B* drag term: 0.0026322211 1/REarth

Two-line elements (TLE)

Creation date: Oct. 21, 2025, 3:26 a.m.

Reference frame: TEME

Reference center: EARTH

Epoch: Oct. 20, 2025, 8:08 p.m. UTC

TLE line 0: 0 CZ-6A DEB

TLE line 1: 1 61084U 24140NA 25293.83938273 .00005073 00000-0 26322-2 0 9996

TLE line 2: 2 61084 88.9912 302.1117 0088553 272.3153 86.7897 14.12663136 59333

Live tracking on map

Real-time ground track for satellite CZ-6A DEB.

In-orbit conjunctions

A list of the most updated potential collisions computed for object CZ-6A DEB.

Target Orbit TCA Probability of collision Miss distance Type
COSMOS 1275 DEB LEO 2025-09-20 19:44:28 0.0001167449 573.0 (m) DEBRIS
COSMOS 2251 DEB LEO 2025-09-13 03:45:08 0.0002798828 163.0 (m) DEBRIS
FENGYUN 1C DEB SSO 2025-02-27 16:45:22 0.0006683169 335.0 (m) DEBRIS
TECHSAT 1B SSO 2025-02-27 09:21:21 0.0009025002 21.0 (m) PAYLOAD
FENGYUN 1C DEB SSO 2024-12-25 07:07:08 0.0001101914 411.0 (m) DEBRIS

Associated space launch

18 Low Earth Orbit communication satellites with Ku, Q and V band payloads for the G60 constellation operated by Shanghai Spacecom Satellite Technology (SSST) with funding backed by the Shanghai local government. Initial constellation will consist of 1296 satellites by 2027 with long term plans to expand it to 12000 satellites.

CZ-6A DEB was lifted into orbit during the mission ‘Long March 6A | G60 Polar Group 01’, on board a Long March 6A space rocket.

The launch took place on Aug. 6, 2024, 6:42 a.m. from Launch Complex 9A.

For more information about the launch, click the button.

Launch to space Long March 6A | G60 Polar Group 01
Long March 6A | G60 Polar Group 01

Agency: N/A

Status: Launch Successful

Launch date: Aug. 6, 2024, 6:42 a.m. UTC

Rocket: Long March 6A

Launch pad: Launch Complex 9A

Location: Taiyuan Satellite Launch Center, People's Republic of China

...

Latest news about this satellite

News about space launch
Brightness of first Chinese broadband constellation satellites alarms astronomers

The first satellites of a Chinese broadband constellation are significantly brighter than those of Western systems, posing a new challenge for astronomers.

News about space launch
Chinese rocket stage breaks up into cloud of more than 700 pieces of space debris

HELSINKI — A Chinese Long March 6A rocket’s upper stage has fragmented into a cloud of over 700 pieces of space debris, adding to concerns about long-term orbital safety. China […]

News about space launch
China's Thousand Sails Megaconstellation Kicks Off with Dangerous Debris Field

China's Thousand Sails Megaconstellation Kicks Off with Dangerous Debris Field


Newsletter sign-up

Weekly statistics, charts and insights to help you stay on top of the space industry.